,,,PA_Meas_PMT16A,,PR_Meas_QMR101_102,,RH_Meas_QMH101,,SR_Meas_QMS101,,TA_Meas_QMH101,,GenWind,,GenWind,
date,time,status,PA,status,PR,status,RH,status,SR,status,TA,status,DirAvg,status,SpdAvg,
2010-05-09, 00:00:04,VALID,997.131,VALID,0,VALID,93.2111,VALID,0,VALID,24.5599,VALID,56,VALID,0,
2010-05-09, 00:01:04,VALID,997.127,VALID,0,VALID,93.2263,VALID,0,VALID,24.5599,VALID,56,VALID,0,
2010-05-09, 00:02:04,VALID,997.152,VALID,0,VALID,93.234,VALID,0,VALID,24.5385,VALID,56,VALID,0,
2010-05-09, 00:03:04,VALID,997.16,VALID,0,VALID,93.2568,VALID,0,VALID,24.5385,VALID,56,VALID,0,
2010-05-09, 00:04:04,VALID,997.173,VALID,0,VALID,93.295,VALID,0,VALID,24.558,VALID,146,VALID,0.910156,
2010-05-09, 00:05:04,VALID,997.14,VALID,0,VALID,93.2721,VALID,0,VALID,24.5385,VALID,155,VALID,0.887109,
2010-05-09, 00:06:04,VALID,997.143,VALID,0,VALID,93.2645,VALID,0,VALID,24.519,VALID,156,VALID,0.851953,
2010-05-09, 00:07:04,VALID,997.121,VALID,0,VALID,93.2721,VALID,0,VALID,24.519,VALID,155,VALID,0.734766,
2010-05-09, 00:08:04,VALID,997.117,VALID,0,VALID,93.3255,VALID,0,VALID,24.5385,VALID,155,VALID,0.385938,
2010-05-09, 00:09:04,VALID,997.11,VALID,0,VALID,93.3103,VALID,0,VALID,24.558,VALID,155,VALID,0.135156,
2010-05-09, 00:10:04,VALID,997.096,VALID,0,VALID,93.3255,VALID,0,VALID,24.558,VALID,155,VALID,0.264062,
2010-05-09, 00:11:04,VALID,997.076,VALID,0,VALID,93.3255,VALID,0,VALID,24.5775,VALID,155,VALID,0.228516,
2010-05-09, 00:12:04,VALID,997.092,VALID,0,VALID,93.3713,VALID,0,VALID,24.5757,VALID,155,VALID,0.169141,
2010-05-09, 00:13:04,VALID,997.113,VALID,0,VALID,93.3637,VALID,0,VALID,24.6166,VALID,155,VALID,0.0300781,
2010-05-09, 00:14:04,VALID,997.121,VALID,0,VALID,93.3484,VALID,0,VALID,24.5971,VALID,155,VALID,0,
2010-05-09, 00:15:04,VALID,997.09,VALID,0,VALID,93.3408,VALID,0,VALID,24.5971,VALID,155,VALID,0,
2010-05-09, 00:16:04,VALID,997.138,VALID,0,VALID,93.3331,VALID,0,VALID,24.5971,VALID,155,VALID,0,
2010-05-09, 00:17:04,VALID,997.092,VALID,0,VALID,93.3484,VALID,0,VALID,24.5971,VALID,155,VALID,0,
2010-05-09, 00:18:04,VALID,997.103,VALID,0,VALID,93.2645,VALID,0,VALID,24.5562,VALID,155,VALID,0.186719,
2010-05-09, 00:19:04,VALID,997.096,VALID,0,VALID,93.2492,VALID,0,VALID,24.519,VALID,155,VALID,0,
2010-05-09, 00:20:04,VALID,997.101,VALID,0,VALID,93.2797,VALID,0,VALID,24.4995,VALID,155,VALID,0,
2010-05-09, 00:21:04,VALID,997.093,VALID,0,VALID,93.3484,VALID,0,VALID,24.5385,VALID,155,VALID,0,
2010-05-09, 00:22:04,VALID,997.06,VALID,0,VALID,93.3331,VALID,0,VALID,24.5171,VALID,155,VALID,0,
2010-05-09, 00:23:04,VALID,997.066,VALID,0,VALID,93.3713,VALID,0,VALID,24.558,VALID,155,VALID,0,
2010-05-09, 00:24:04,VALID,997.043,VALID,0,VALID,93.4018,VALID,0,VALID,24.558,VALID,155,VALID,0.530078,
2010-05-09, 00:25:04,VALID,997.034,VALID,0,VALID,93.3637,VALID,0,VALID,24.5775,VALID,155,VALID,0.447266,
2010-05-09, 00:26:04,VALID,997.008,VALID,0,VALID,93.3484,VALID,0,VALID,24.558,VALID,155,VALID,0.340625,
2010-05-09, 00:27:04,VALID,996.975,VALID,0,VALID,93.3942,VALID,0,VALID,24.558,VALID,155,VALID,0.260938,
2010-05-09, 00:28:04,VALID,996.988,VALID,0,VALID,93.3789,VALID,0,VALID,24.5775,VALID,155,VALID,0.187891,
2010-05-09, 00:29:04,VALID,996.965,VALID,0,VALID,93.3637,VALID,0,VALID,24.5775,VALID,155,VALID,0,
2010-05-09, 00:30:04,VALID,996.933,VALID,0,VALID,93.3484,VALID,0,VALID,24.558,VALID,155,VALID,0,
2010-05-09, 00:31:04,VALID,996.909,VALID,0,VALID,93.3255,VALID,0,VALID,24.558,VALID,155,VALID,0,
2010-05-09, 00:32:04,VALID,996.897,VALID,0,VALID,93.3484,VALID,0,VALID,24.5599,VALID,155,VALID,0,
2010-05-09, 00:33:04,VALID,996.887,VALID,0,VALID,93.3179,VALID,0,VALID,24.5404,VALID,155,VALID,0,
2010-05-09, 00:34:04,VALID,996.88,VALID,0,VALID,93.3026,VALID,0,VALID,24.5209,VALID,155,VALID,0,
2010-05-09, 00:35:04,VALID,996.825,VALID,0,VALID,93.2797,VALID,0,VALID,24.5013,VALID,155,VALID,0,
2010-05-09, 00:36:04,VALID,996.796,VALID,0,VALID,93.2721,VALID,0,VALID,24.4818,VALID,155,VALID,0,
2010-05-09, 00:37:04,VALID,996.777,VALID,0,VALID,93.3103,VALID,0,VALID,24.5013,VALID,155,VALID,0,
2010-05-09, 00:38:04,VALID,996.741,VALID,0,VALID,93.3255,VALID,0,VALID,24.5209,VALID,160,VALID,0,
2010-05-09, 00:39:04,VALID,996.768,VALID,0,VALID,93.3484,VALID,0,VALID,24.5599,VALID,160,VALID,0,
2010-05-09, 00:40:04,VALID,996.718,VALID,0,VALID,93.3789,VALID,0,VALID,24.5599,VALID,160,VALID,0,
2010-05-09, 00:41:04,VALID,996.698,VALID,0,VALID,93.3713,VALID,0,VALID,24.5794,VALID,160,VALID,0,
2010-05-09, 00:42:04,VALID,996.688,VALID,0,VALID,93.3637,VALID,0,VALID,24.5794,VALID,160,VALID,0,
2010-05-09, 00:43:04,VALID,996.645,VALID,0,VALID,93.3713,VALID,0,VALID,24.5794,VALID,159,VALID,0.787891,
2010-05-09, 00:44:04,VALID,996.654,VALID,0,VALID,93.3255,VALID,0,VALID,24.5794,VALID,148,VALID,1.21758,
2010-05-09, 00:45:04,VALID,996.64,VALID,0,VALID,93.2874,VALID,0,VALID,24.5794,VALID,147,VALID,1.05547,
2010-05-09, 00:46:04,VALID,996.626,VALID,0,VALID,93.1882,VALID,0,VALID,24.5599,VALID,147,VALID,0.987891,
2010-05-09, 00:47:04,VALID,996.604,VALID,0,VALID,93.15,VALID,0,VALID,24.5404,VALID,153,VALID,1.07578,
2010-05-09, 00:48:04,VALID,996.546,VALID,0,VALID,93.1348,VALID,0,VALID,24.5404,VALID,157,VALID,0.961719,
2010-05-09, 00:49:04,VALID,996.514,VALID,0,VALID,93.0737,VALID,0,VALID,24.5209,VALID,155,VALID,0.976953,
2010-05-09, 00:50:04,VALID,996.486,VALID,0,VALID,93.089,VALID,0,VALID,24.5013,VALID,139,VALID,0.692578,
2010-05-09, 00:51:04,VALID,996.456,VALID,0,VALID,93.0661,VALID,0,VALID,24.4818,VALID,139,VALID,0.345313,
2010-05-09, 00:52:04,VALID,996.428,VALID,0,VALID,93.028,VALID,0,VALID,24.4623,VALID,139,VALID,0,
2010-05-09, 00:53:04,VALID,996.394,VALID,0,VALID,92.9898,VALID,0,VALID,24.4233,VALID,139,VALID,0,
2010-05-09, 00:54:04,VALID,996.385,VALID,0,VALID,92.9745,VALID,0,VALID,24.4037,VALID,139,VALID,0,
2010-05-09, 00:55:04,VALID,996.349,VALID,0,VALID,92.8983,VALID,0,VALID,24.3257,VALID,121,VALID,0,
2010-05-09, 00:56:04,VALID,996.327,VALID,0,VALID,92.9288,VALID,0,VALID,24.2848,VALID,86,VALID,0,
2010-05-09, 00:57:04,VALID,996.288,VALID,0,VALID,92.9593,VALID,0,VALID,24.3062,VALID,44,VALID,0.548437,
2010-05-09, 00:58:04,VALID,996.292,VALID,0,VALID,93.0966,VALID,0,VALID,24.3257,VALID,40,VALID,0.323047,
2010-05-09, 00:59:04,VALID,996.295,VALID,0,VALID,93.1424,VALID,0,VALID,24.3452,VALID,40,VALID,0.240625,
2010-05-09, 01:00:04,VALID,996.237,VALID,0,VALID,93.1729,VALID,0,VALID,24.3452,VALID,40,VALID,0,
2010-05-09, 01:01:04,VALID,996.239,VALID,0,VALID,93.1958,VALID,0,VALID,24.3452,VALID,40,VALID,0.200781,
2010-05-09, 01:02:04,VALID,996.22,VALID,0,VALID,93.1577,VALID,0,VALID,24.3043,VALID,40,VALID,0.399219,
2010-05-09, 01:03:04,VALID,996.188,VALID,0,VALID,93.2187,VALID,0,VALID,24.3433,VALID,40,VALID,0.321875,
2010-05-09, 01:04:04,VALID,996.196,VALID,0,VALID,93.2187,VALID,0.112286,VALID,24.3238,VALID,40,VALID,0,
2010-05-09, 01:05:04,VALID,996.159,VALID,0,VALID,93.2111,VALID,0.112286,VALID,24.3238,VALID,40,VALID,0,
2010-05-09, 01:06:04,VALID,996.129,VALID,0,VALID,93.2187,VALID,0,VALID,24.3043,VALID,40,VALID,0,
2010-05-09, 01:07:04,VALID,996.133,VALID,0,VALID,93.2187,VALID,0,VALID,24.2848,VALID,40,VALID,0,
2010-05-09, 01:08:04,VALID,996.126,VALID,0,VALID,93.234,VALID,0,VALID,24.2848,VALID,40,VALID,0,
2010-05-09, 01:09:04,VALID,996.077,VALID,0,VALID,93.2187,VALID,0.112286,VALID,24.2653,VALID,40,VALID,0,
2010-05-09, 01:10:04,VALID,996.073,VALID,0,VALID,93.2492,VALID,0,VALID,24.2653,VALID,40,VALID,0,
2010-05-09, 01:11:04,VALID,996.087,VALID,0,VALID,93.2645,VALID,0.112286,VALID,24.2653,VALID,40,VALID,0,
2010-05-09, 01:12:04,VALID,996.035,VALID,0,VALID,93.295,VALID,0,VALID,24.2653,VALID,40,VALID,0,
2010-05-09, 01:13:04,VALID,996.044,VALID,0,VALID,93.3331,VALID,0,VALID,24.2848,VALID,40,VALID,0,
2010-05-09, 01:14:04,VALID,996.066,VALID,0,VALID,93.3255,VALID,0,VALID,24.3043,VALID,40,VALID,0,
2010-05-09, 01:15:04,VALID,996.064,VALID,0,VALID,93.3713,VALID,0.112286,VALID,24.3238,VALID,40,VALID,0,
2010-05-09, 01:16:04,VALID,996.016,VALID,0,VALID,93.3866,VALID,0,VALID,24.3433,VALID,40,VALID,0,
2010-05-09, 01:17:04,VALID,996.022,VALID,0,VALID,93.4018,VALID,0,VALID,24.3842,VALID,26,VALID,0,
2010-05-09, 01:18:04,VALID,996.016,VALID,0,VALID,93.4171,VALID,0,VALID,24.3842,VALID,240,VALID,0,
2010-05-09, 01:19:04,VALID,996.021,VALID,0,VALID,93.4247,VALID,0,VALID,24.3842,VALID,240,VALID,0,
2010-05-09, 01:20:04,VALID,995.998,VALID,0,VALID,93.4552,VALID,0,VALID,24.4233,VALID,225,VALID,0,
2010-05-09, 01:21:04,VALID,995.97,VALID,0,VALID,93.4247,VALID,0,VALID,24.4214,VALID,221,VALID,0,
2010-05-09, 01:22:04,VALID,995.957,VALID,0,VALID,93.4247,VALID,0,VALID,24.4623,VALID,221,VALID,0,
2010-05-09, 01:23:04,VALID,995.933,VALID,0,VALID,93.3789,VALID,0,VALID,24.5209,VALID,194,VALID,1.07813,
2010-05-09, 01:24:04,VALID,995.934,VALID,0,VALID,93.3103,VALID,0,VALID,24.5404,VALID,195,VALID,1.09102,
2010-05-09, 01:25:04,VALID,995.94,VALID,0,VALID,93.2187,VALID,0,VALID,24.5989,VALID,193,VALID,0.860937,
2010-05-09, 01:26:04,VALID,995.918,VALID,0,VALID,93.0814,VALID,0,VALID,24.638,VALID,192,VALID,1.51953,
2010-05-09, 01:27:04,VALID,995.902,VALID,0,VALID,92.9517,VALID,0,VALID,24.6575,VALID,228,VALID,1.13711,
2010-05-09, 01:28:04,VALID,995.872,VALID,0,VALID,92.7762,VALID,0,VALID,24.6575,VALID,238,VALID,0.889453,
2010-05-09, 01:29:04,VALID,995.881,VALID,0,VALID,92.6236,VALID,0,VALID,24.6575,VALID,214,VALID,0.900391,
2010-05-09, 01:30:04,VALID,995.88,VALID,0,VALID,92.5244,VALID,0,VALID,24.6575,VALID,245,VALID,0.494141,
2010-05-09, 01:31:04,VALID,995.852,VALID,0,VALID,92.41,VALID,0,VALID,24.6184,VALID,276,VALID,0.355469,
2010-05-09, 01:32:04,VALID,995.858,VALID,0,VALID,92.3871,VALID,0,VALID,24.5989,VALID,255,VALID,0.300781,
2010-05-09, 01:33:04,VALID,995.868,VALID,0,VALID,92.3794,VALID,0,VALID,24.5794,VALID,255,VALID,0.178516,
2010-05-09, 01:34:04,VALID,995.851,VALID,0,VALID,92.3566,VALID,0,VALID,24.5404,VALID,255,VALID,0.141797,
2010-05-09, 01:35:04,VALID,995.869,VALID,0,VALID,92.3642,VALID,0,VALID,24.5013,VALID,255,VALID,0.0632813,
2010-05-09, 01:36:04,VALID,995.852,VALID,0,VALID,92.3947,VALID,0,VALID,24.4623,VALID,255,VALID,0,
2010-05-09, 01:37:04,VALID,995.866,VALID,0,VALID,92.4328,VALID,0,VALID,24.4428,VALID,255,VALID,0,
2010-05-09, 01:38:04,VALID,995.853,VALID,0,VALID,92.5015,VALID,0,VALID,24.4428,VALID,255,VALID,0,
2010-05-09, 01:39:04,VALID,995.814,VALID,0,VALID,92.5473,VALID,0,VALID,24.4019,VALID,255,VALID,0,
2010-05-09, 01:40:04,VALID,995.81,VALID,0,VALID,92.6007,VALID,0,VALID,24.4037,VALID,255,VALID,0,
2010-05-09, 01:41:04,VALID,995.798,VALID,0,VALID,92.6846,VALID,0,VALID,24.3824,VALID,255,VALID,0,
2010-05-09, 01:42:04,VALID,995.776,VALID,0,VALID,92.7228,VALID,0,VALID,24.4037,VALID,255,VALID,0,
2010-05-09, 01:43:04,VALID,995.782,VALID,0,VALID,92.738,VALID,0,VALID,24.3842,VALID,255,VALID,0,
2010-05-09, 01:44:04,VALID,995.735,VALID,0,VALID,92.7304,VALID,0,VALID,24.3647,VALID,256,VALID,0.290625,
2010-05-09, 01:45:04,VALID,995.742,VALID,0,VALID,92.7533,VALID,0,VALID,24.3238,VALID,256,VALID,0.455078,
2010-05-09, 01:46:04,VALID,995.703,VALID,0,VALID,92.7991,VALID,0,VALID,24.3257,VALID,255,VALID,0.280859,
2010-05-09, 01:47:04,VALID,995.7,VALID,0,VALID,92.8067,VALID,0,VALID,24.2866,VALID,255,VALID,0,
2010-05-09, 01:48:04,VALID,995.706,VALID,0,VALID,92.8448,VALID,0,VALID,24.2866,VALID,255,VALID,0,
2010-05-09, 01:49:04,VALID,995.696,VALID,0,VALID,92.8448,VALID,0,VALID,24.269,VALID,255,VALID,0,
2010-05-09, 01:50:04,VALID,995.691,VALID,0,VALID,92.822,VALID,0,VALID,24.2086,VALID,255,VALID,0,
2010-05-09, 01:51:04,VALID,995.707,VALID,0,VALID,92.8143,VALID,0,VALID,24.1696,VALID,255,VALID,0,
2010-05-09, 01:52:04,VALID,995.669,VALID,0,VALID,92.8448,VALID,0,VALID,24.15,VALID,255,VALID,0,
2010-05-09, 01:53:04,VALID,995.666,VALID,0,VALID,92.9211,VALID,0,VALID,24.1305,VALID,255,VALID,0,
2010-05-09, 01:54:04,VALID,995.635,VALID,0,VALID,92.822,VALID,0,VALID,24.072,VALID,255,VALID,0.318359,
2010-05-09, 01:55:04,VALID,995.605,VALID,0,VALID,92.8906,VALID,0,VALID,24.0134,VALID,256,VALID,0.432422,
2010-05-09, 01:56:04,VALID,995.594,VALID,0,VALID,93.028,VALID,0,VALID,24.0525,VALID,256,VALID,0.445313,
2010-05-09, 01:57:04,VALID,995.589,VALID,0,VALID,93.15,VALID,0,VALID,24.072,VALID,299,VALID,0.519922,
2010-05-09, 01:58:04,VALID,995.556,VALID,0,VALID,93.1424,VALID,0,VALID,24.0915,VALID,334,VALID,0.64375,
2010-05-09, 01:59:04,VALID,995.573,VALID,0,VALID,93.2492,VALID,0,VALID,24.0525,VALID,334,VALID,0.619922,
2010-05-09, 02:00:04,VALID,995.568,VALID,0,VALID,93.3255,VALID,0,VALID,24.072,VALID,348,VALID,0.687109,
2010-05-09, 02:01:04,VALID,995.541,VALID,0,VALID,93.3179,VALID,0,VALID,24.0525,VALID,350,VALID,0.574219,
2010-05-09, 02:02:04,VALID,995.537,VALID,0,VALID,93.2645,VALID,0,VALID,24.0329,VALID,350,VALID,0.625391,
2010-05-09, 02:03:04,VALID,995.523,VALID,0,VALID,93.1577,VALID,0,VALID,23.9549,VALID,350,VALID,0.575,
2010-05-09, 02:04:04,VALID,995.527,VALID,0,VALID,93.15,VALID,0,VALID,23.8768,VALID,350,VALID,0.419531,
2010-05-09, 02:05:04,VALID,995.502,VALID,0,VALID,93.1882,VALID,0,VALID,23.8378,VALID,350,VALID,0.292969,
2010-05-09, 02:06:04,VALID,995.469,VALID,0,VALID,93.2111,VALID,0,VALID,23.7988,VALID,350,VALID,0,
2010-05-09, 02:07:04,VALID,995.453,VALID,0,VALID,93.2111,VALID,0,VALID,23.7811,VALID,350,VALID,0,
2010-05-09, 02:08:04,VALID,995.427,VALID,0,VALID,93.2492,VALID,0,VALID,23.7402,VALID,350,VALID,0,
2010-05-09, 02:09:04,VALID,995.425,VALID,0,VALID,93.2645,VALID,0,VALID,23.7207,VALID,350,VALID,0,
2010-05-09, 02:10:04,VALID,995.426,VALID,0,VALID,93.3484,VALID,0,VALID,23.7616,VALID,350,VALID,0.285937,
2010-05-09, 02:11:04,VALID,995.428,VALID,0,VALID,93.44,VALID,0,VALID,23.7597,VALID,15,VALID,0.593359,
2010-05-09, 02:12:04,VALID,995.407,VALID,0,VALID,93.4705,VALID,0,VALID,23.7988,VALID,31,VALID,0.492578,
2010-05-09, 02:13:04,VALID,995.4,VALID,0,VALID,93.5086,VALID,0,VALID,23.8378,VALID,31,VALID,0.326172,
2010-05-09, 02:14:04,VALID,995.369,VALID,0,VALID,93.6002,VALID,0,VALID,23.8768,VALID,31,VALID,0.481641,
2010-05-09, 02:15:04,VALID,995.414,VALID,0,VALID,93.5849,VALID,0,VALID,23.9177,VALID,31,VALID,0.307031,
2010-05-09, 02:16:04,VALID,995.388,VALID,0,VALID,93.5926,VALID,0,VALID,23.9159,VALID,31,VALID,0.0835937,
2010-05-09, 02:17:04,VALID,995.379,VALID,0,VALID,93.6078,VALID,0,VALID,23.9354,VALID,31,VALID,0,
2010-05-09, 02:18:04,VALID,995.397,VALID,0,VALID,93.5773,VALID,0,VALID,23.9159,VALID,31,VALID,0,
2010-05-09, 02:19:04,VALID,995.373,VALID,0,VALID,93.5849,VALID,0,VALID,23.8963,VALID,31,VALID,0.0515625,
2010-05-09, 02:20:04,VALID,995.375,VALID,0,VALID,93.5926,VALID,0,VALID,23.8963,VALID,31,VALID,0,
2010-05-09, 02:21:04,VALID,995.386,VALID,0,VALID,93.5773,VALID,0,VALID,23.8768,VALID,31,VALID,0,
2010-05-09, 02:22:04,VALID,995.405,VALID,0,VALID,93.562,VALID,0,VALID,23.8183,VALID,31,VALID,0,
2010-05-09, 02:23:04,VALID,995.389,VALID,0,VALID,93.6002,VALID,0,VALID,23.8573,VALID,24,VALID,0,
2010-05-09, 02:24:04,VALID,995.393,VALID,0,VALID,93.6154,VALID,0,VALID,23.8378,VALID,350,VALID,0,
2010-05-09, 02:25:04,VALID,995.368,VALID,0,VALID,93.646,VALID,0,VALID,23.8573,VALID,350,VALID,0,
2010-05-09, 02:26:04,VALID,995.39,VALID,0,VALID,93.6383,VALID,0,VALID,23.8768,VALID,350,VALID,0,
2010-05-09, 02:27:04,VALID,995.336,VALID,0,VALID,93.6612,VALID,0,VALID,23.8768,VALID,350,VALID,0,
2010-05-09, 02:28:04,VALID,995.358,VALID,0,VALID,93.6383,VALID,0,VALID,23.8963,VALID,350,VALID,0,
2010-05-09, 02:29:04,VALID,995.332,VALID,0,VALID,93.6612,VALID,0,VALID,23.8768,VALID,350,VALID,0,
2010-05-09, 02:30:04,VALID,995.278,VALID,0,VALID,93.646,VALID,0,VALID,23.8768,VALID,350,VALID,0,
2010-05-09, 02:31:04,VALID,995.254,VALID,0,VALID,93.6154,VALID,0,VALID,23.8573,VALID,350,VALID,0,
2010-05-09, 02:32:04,VALID,995.268,VALID,0,VALID,93.6231,VALID,0,VALID,23.8573,VALID,350,VALID,0,
2010-05-09, 02:33:04,VALID,995.247,VALID,0,VALID,93.6078,VALID,0,VALID,23.8165,VALID,350,VALID,0,
2010-05-09, 02:34:04,VALID,995.243,VALID,0,VALID,93.6612,VALID,0,VALID,23.8378,VALID,350,VALID,0,
2010-05-09, 02:35:04,VALID,995.274,VALID,0,VALID,93.6688,VALID,0,VALID,23.8378,VALID,350,VALID,0,
2010-05-09, 02:36:04,VALID,995.253,VALID,0,VALID,93.7146,VALID,0,VALID,23.8573,VALID,350,VALID,0,
2010-05-09, 02:37:04,VALID,995.238,VALID,0,VALID,93.7833,VALID,0,VALID,23.8945,VALID,42,VALID,0.071875,
2010-05-09, 02:38:04,VALID,995.248,VALID,0,VALID,93.6917,VALID,0,VALID,23.8963,VALID,144,VALID,0.830078,
2010-05-09, 02:39:04,VALID,995.277,VALID,0,VALID,93.7146,VALID,0,VALID,23.8945,VALID,144,VALID,0.668359,
2010-05-09, 02:40:04,VALID,995.252,VALID,0,VALID,93.6765,VALID,0,VALID,23.8573,VALID,144,VALID,0.725391,
2010-05-09, 02:41:04,VALID,995.224,VALID,0,VALID,93.6765,VALID,0,VALID,23.797,VALID,144,VALID,0.772266,
2010-05-09, 02:42:04,VALID,995.245,VALID,0,VALID,93.768,VALID,0,VALID,23.8378,VALID,144,VALID,0.616406,
2010-05-09, 02:43:04,VALID,995.233,VALID,0,VALID,93.7223,VALID,0,VALID,23.8573,VALID,144,VALID,0.462109,
2010-05-09, 02:44:04,VALID,995.172,VALID,0,VALID,93.7375,VALID,0,VALID,23.8183,VALID,144,VALID,0.392578,
2010-05-09, 02:45:04,VALID,995.163,VALID,0,VALID,93.7451,VALID,0,VALID,23.8396,VALID,109,VALID,0.429688,
2010-05-09, 02:46:04,VALID,995.166,VALID,0,VALID,93.7375,VALID,0,VALID,23.8183,VALID,84,VALID,0.701953,
2010-05-09, 02:47:04,VALID,995.11,VALID,0,VALID,93.7451,VALID,0,VALID,23.8183,VALID,84,VALID,0.727344,
2010-05-09, 02:48:04,VALID,995.108,VALID,0,VALID,93.7528,VALID,0,VALID,23.8183,VALID,79,VALID,0.826953,
2010-05-09, 02:49:04,VALID,995.111,VALID,0,VALID,93.7299,VALID,0,VALID,23.7988,VALID,79,VALID,0.589453,
2010-05-09, 02:50:04,VALID,995.05,VALID,0,VALID,93.7146,VALID,0,VALID,23.7793,VALID,79,VALID,0.524219,
2010-05-09, 02:51:04,VALID,995.068,VALID,0,VALID,93.7528,VALID,0,VALID,23.7597,VALID,71,VALID,0.585547,
2010-05-09, 02:52:04,VALID,995.033,VALID,0,VALID,93.768,VALID,0,VALID,23.7793,VALID,59,VALID,0.577734,
2010-05-09, 02:53:04,VALID,995.013,VALID,0,VALID,93.7604,VALID,0,VALID,23.7775,VALID,51,VALID,0.520312,
2010-05-09, 02:54:04,VALID,995.031,VALID,0,VALID,93.7299,VALID,0,VALID,23.7207,VALID,5,VALID,0.646875,
2010-05-09, 02:55:04,VALID,995.008,VALID,0,VALID,93.768,VALID,0,VALID,23.7207,VALID,5,VALID,0.373047,
2010-05-09, 02:56:04,VALID,994.997,VALID,0,VALID,93.7299,VALID,0,VALID,23.7402,VALID,338,VALID,0.425781,
2010-05-09, 02:57:04,VALID,994.953,VALID,0,VALID,93.7375,VALID,0,VALID,23.7012,VALID,322,VALID,0.471094,
2010-05-09, 02:58:04,VALID,994.964,VALID,0,VALID,93.7757,VALID,0,VALID,23.7207,VALID,322,VALID,0.359766,
2010-05-09, 02:59:04,VALID,994.951,VALID,0,VALID,93.768,VALID,0,VALID,23.7402,VALID,322,VALID,0.123438,
2010-05-09, 03:00:04,VALID,994.918,VALID,0,VALID,93.768,VALID,0,VALID,23.7402,VALID,322,VALID,0,
2010-05-09, 03:01:04,VALID,994.928,VALID,0,VALID,93.7757,VALID,0,VALID,23.7597,VALID,322,VALID,0,
2010-05-09, 03:02:04,VALID,994.917,VALID,0,VALID,93.768,VALID,0,VALID,23.7402,VALID,322,VALID,0,
2010-05-09, 03:03:04,VALID,994.895,VALID,0,VALID,93.768,VALID,0,VALID,23.7207,VALID,322,VALID,0,
2010-05-09, 03:04:04,VALID,994.913,VALID,0,VALID,93.7299,VALID,0,VALID,23.6817,VALID,322,VALID,0,
2010-05-09, 03:05:04,VALID,994.866,VALID,0,VALID,93.768,VALID,0,VALID,23.6622,VALID,322,VALID,0,
2010-05-09, 03:06:04,VALID,994.89,VALID,0,VALID,93.7604,VALID,0,VALID,23.6817,VALID,322,VALID,0,
2010-05-09, 03:07:04,VALID,994.835,VALID,0,VALID,93.7375,VALID,0,VALID,23.6427,VALID,322,VALID,0,
2010-05-09, 03:08:04,VALID,994.832,VALID,0,VALID,93.7299,VALID,0,VALID,23.6232,VALID,322,VALID,0,
2010-05-09, 03:09:04,VALID,994.823,VALID,0,VALID,93.8062,VALID,0,VALID,23.6427,VALID,322,VALID,0,
2010-05-09, 03:10:04,VALID,994.8,VALID,0,VALID,93.8214,VALID,0,VALID,23.6817,VALID,322,VALID,0,
2010-05-09, 03:11:04,VALID,994.778,VALID,0,VALID,93.8138,VALID,0,VALID,23.7012,VALID,322,VALID,0,
2010-05-09, 03:12:04,VALID,994.802,VALID,0,VALID,93.8214,VALID,0,VALID,23.6817,VALID,322,VALID,0,
2010-05-09, 03:13:04,VALID,994.776,VALID,0,VALID,93.7985,VALID,0,VALID,23.6817,VALID,322,VALID,0,
2010-05-09, 03:14:04,VALID,994.785,VALID,0,VALID,93.8138,VALID,0,VALID,23.6817,VALID,322,VALID,0,
2010-05-09, 03:15:04,VALID,994.781,VALID,0,VALID,93.8138,VALID,0,VALID,23.6817,VALID,322,VALID,0,
2010-05-09, 03:16:04,VALID,994.803,VALID,0,VALID,93.768,VALID,0,VALID,23.6622,VALID,322,VALID,0.028125,
2010-05-09, 03:17:04,VALID,994.808,VALID,0,VALID,93.8062,VALID,0,VALID,23.6427,VALID,322,VALID,0.229297,
2010-05-09, 03:18:04,VALID,994.83,VALID,0,VALID,93.852,VALID,0,VALID,23.6817,VALID,322,VALID,0.213672,
2010-05-09, 03:19:04,VALID,994.861,VALID,0,VALID,93.8672,VALID,0,VALID,23.7207,VALID,322,VALID,0.293359,
2010-05-09, 03:20:04,VALID,994.831,VALID,0,VALID,93.8672,VALID,0,VALID,23.742,VALID,322,VALID,0.378906,
2010-05-09, 03:21:04,VALID,994.831,VALID,0,VALID,93.852,VALID,0,VALID,23.7616,VALID,322,VALID,0.390234,
2010-05-09, 03:22:04,VALID,994.858,VALID,0,VALID,93.8367,VALID,0,VALID,23.7402,VALID,322,VALID,0.469922,
2010-05-09, 03:23:04,VALID,994.876,VALID,0,VALID,93.8748,VALID,0,VALID,23.7402,VALID,322,VALID,0.583594,
2010-05-09, 03:24:04,VALID,994.833,VALID,0,VALID,93.9054,VALID,0,VALID,23.7793,VALID,322,VALID,0.608203,
2010-05-09, 03:25:04,VALID,994.808,VALID,0,VALID,93.8672,VALID,0,VALID,23.7597,VALID,322,VALID,0.591016,
2010-05-09, 03:26:04,VALID,994.802,VALID,0,VALID,93.852,VALID,0,VALID,23.7402,VALID,155,VALID,0.710938,
2010-05-09, 03:27:04,VALID,994.789,VALID,0,VALID,93.8901,VALID,0,VALID,23.7402,VALID,166,VALID,0.930078,
2010-05-09, 03:28:04,VALID,994.813,VALID,0,VALID,93.9054,VALID,0,VALID,23.7988,VALID,177,VALID,1.19219,
2010-05-09, 03:29:04,VALID,994.826,VALID,0,VALID,93.913,VALID,0,VALID,23.8786,VALID,176,VALID,1.25508,
2010-05-09, 03:30:04,VALID,994.886,VALID,0,VALID,93.9283,VALID,0,VALID,23.875,VALID,176,VALID,1.43516,
2010-05-09, 03:31:04,VALID,994.84,VALID,0,VALID,93.913,VALID,0,VALID,23.8963,VALID,174,VALID,1.4168,
2010-05-09, 03:32:04,VALID,994.878,VALID,0,VALID,93.8977,VALID,0,VALID,23.8768,VALID,180,VALID,1.5793,
2010-05-09, 03:33:04,VALID,994.878,VALID,0,VALID,93.8825,VALID,0,VALID,23.8555,VALID,181,VALID,1.3168,
2010-05-09, 03:34:04,VALID,994.888,VALID,0,VALID,93.8825,VALID,0,VALID,23.8963,VALID,181,VALID,1.03984,
2010-05-09, 03:35:04,VALID,994.875,VALID,0,VALID,93.8672,VALID,0,VALID,23.8963,VALID,182,VALID,0.948047,
2010-05-09, 03:36:04,VALID,994.854,VALID,0,VALID,93.8672,VALID,0,VALID,23.9159,VALID,188,VALID,0.921875,
2010-05-09, 03:37:04,VALID,994.865,VALID,0,VALID,93.8596,VALID,0,VALID,23.9354,VALID,189,VALID,0.9,
2010-05-09, 03:38:04,VALID,994.866,VALID,0,VALID,93.8443,VALID,0,VALID,23.9354,VALID,206,VALID,0.841016,
2010-05-09, 03:39:04,VALID,994.831,VALID,0,VALID,93.8214,VALID,0,VALID,23.914,VALID,206,VALID,0.894531,
2010-05-09, 03:40:04,VALID,994.81,VALID,0,VALID,93.768,VALID,0,VALID,23.9336,VALID,205,VALID,0.885156,
2010-05-09, 03:41:04,VALID,994.825,VALID,0,VALID,93.7833,VALID,0,VALID,23.9744,VALID,189,VALID,0.792578,
2010-05-09, 03:42:04,VALID,994.848,VALID,0,VALID,93.7528,VALID,0,VALID,23.9939,VALID,200,VALID,0.841797,
2010-05-09, 03:43:04,VALID,994.829,VALID,0,VALID,93.707,VALID,0,VALID,24.0134,VALID,193,VALID,0.975,
2010-05-09, 03:44:04,VALID,994.842,VALID,0,VALID,93.6612,VALID,0,VALID,24.0134,VALID,205,VALID,0.674609,
2010-05-09, 03:45:04,VALID,994.821,VALID,0,VALID,93.6154,VALID,0,VALID,23.9921,VALID,180,VALID,0.494531,
2010-05-09, 03:46:04,VALID,994.825,VALID,0,VALID,93.5468,VALID,0,VALID,24.0134,VALID,185,VALID,0.6,
2010-05-09, 03:47:04,VALID,994.821,VALID,0,VALID,93.5315,VALID,0,VALID,24.0134,VALID,183,VALID,0.865234,
2010-05-09, 03:48:04,VALID,994.812,VALID,0,VALID,93.4781,VALID,0,VALID,23.9939,VALID,187,VALID,0.633203,
2010-05-09, 03:49:04,VALID,994.803,VALID,0,VALID,93.4628,VALID,0,VALID,23.9939,VALID,197,VALID,0.469531,
2010-05-09, 03:50:04,VALID,994.802,VALID,0,VALID,93.4247,VALID,0,VALID,23.9744,VALID,210,VALID,0.378125,
2010-05-09, 03:51:04,VALID,994.801,VALID,0,VALID,93.3866,VALID,0,VALID,23.9744,VALID,210,VALID,0.0804688,